| DS18B20 | SHTC3 | ||||||
|---|---|---|---|---|---|---|---|
| ID | Date d/m/Y & Time | data1 สูง | data2 ต่ำ | data3 นอก | temp pcb | hum pcb | Time |
| 8387 | 03/04/2026 10:08:38 | 29.8  | 28.8  | 31.0  | 29.1  | 68.7  | 10:08 |
| 8386 | 03/04/2026 10:03:56 | 29.7  | 28.8  | 30.9  | 29.3  | 68.7  | 10:03 |
| 8385 | 03/04/2026 09:59:14 | 29.6  | 28.7  | 30.9  | 29.0  | 68.8  | 09:59 |
| 8384 | 03/04/2026 09:54:32 | 29.5  | 28.6  | 31.0  | 29.0  | 69.0  | 09:54 |
| 8383 | 03/04/2026 09:49:50 | 29.4  | 28.5  | 30.7  | 28.8  | 68.9  | 09:49 |
| 8382 | 03/04/2026 09:45:09 | 29.3  | 28.4  | 30.5  | 28.8  | 69.0  | 09:45 |
| 8381 | 03/04/2026 09:40:27 | 29.2  | 28.4  | 30.7  | 28.6  | 69.1  | 09:40 |
| 8380 | 03/04/2026 09:35:46 | 29.1  | 28.3  | 30.7  | 28.6  | 69.3  | 09:35 |
| 8379 | 03/04/2026 09:31:04 | 29.0  | 28.2  | 30.5  | 28.5  | 69.5  | 09:31 |
| 8378 | 03/04/2026 09:26:22 | 28.9  | 28.1  | 30.2  | 28.6  | 69.5  | 09:26 |
| 8377 | 03/04/2026 09:21:41 | 28.9  | 28.1  | 30.1  | 28.2  | 69.6  | 09:21 |
| 8376 | 03/04/2026 09:16:59 | 28.8  | 28.0  | 29.9  | 28.1  | 69.8  | 09:16 |
| 8375 | 03/04/2026 09:12:18 | 28.6  | 27.9  | 30.0  | 28.1  | 70.0  | 09:12 |
| 8374 | 03/04/2026 09:07:37 | 28.5  | 27.8  | 29.7  | 28.1  | 70.2  | 09:07 |
| 8373 | 03/04/2026 09:02:54 | 28.4  | 27.8  | 29.5  | 27.9  | 70.3  | 09:02 |
| 8372 | 03/04/2026 08:58:12 | 28.2  | 27.7  | 29.4  | 27.8  | 70.5  | 08:58 |
| 8371 | 03/04/2026 08:53:30 | 28.1  | 27.6  | 29.0  | 27.7  | 70.8  | 08:53 |
| 8370 | 03/04/2026 08:48:49 | 27.9  | 27.6  | 29.2  | 27.6  | 70.8  | 08:48 |
| 8369 | 03/04/2026 08:44:07 | 27.8  | 27.4  | 29.2  | 27.6  | 71.1  | 08:44 |
| 8368 | 03/04/2026 08:39:26 | 27.7  | 27.4  | 28.7  | 27.4  | 71.2  | 08:39 |
| 8367 | 03/04/2026 08:34:41 | 27.6  | 27.3  | 28.8  | 27.5  | 71.5  | 08:34 |
| 8366 | 03/04/2026 08:29:59 | 27.4  | 27.3  | 28.6  | 27.2  | 71.5  | 08:29 |
| 8365 | 03/04/2026 08:25:18 | 27.4  | 27.2  | 28.4  | 27.1  | 71.7  | 08:25 |
| 8364 | 03/04/2026 08:20:36 | 27.2  | 27.2  | 28.0  | 27.1  | 71.8  | 08:20 |